Broken Bow, NE

2:44 PM CDT on June 26, 2017 (GMT -0500)
Broken Bow Municipal

Weather History for KBBW - November, 2013

Change the Weather History Date:

Friday, November 1, 2013

  Actual Average Record
Temperature  
Mean Temperature 46 °F 43 °F  
Max Temperature 56 °F 56 °F 81 °F (1931)
Min Temperature 35 °F 30 °F 8 °F (1993)
Degree Days  
Heating Degree Days 19 22  
Month to date heating degree days 19 22  
Cooling Degree Days 0 0  
Month to date cooling degree days 0 0  
Year to date cooling degree days 814 768  
Moisture  
Dew Point 32 °F    
Average Humidity 59    
Maximum Humidity 82    
Minimum Humidity 35    
Precipitation  
Precipitation T in 0.04 in 1.90 in (2000)
Sea Level Pressure  
Sea Level Pressure 29.92 in    
Wind  
Wind Speed 18 mph (NW)    
Max Wind Speed 36 mph    
Max Gust Speed 44 mph    
Visibility 10 miles    
Events      
T = Trace of Precipitation, MM = Missing Value Source: NWS Daily Summary

Daily Weather History Graph

Daily Weather History Graph

Search for Another Location

Airport or City:

Trip Planner

Search our weather history database for the weather conditions in past years. The results will help you decide how hot, cold, wet, or windy it might be!

Date:

Astronomy

Nov. 01, 2013 Rise Set
Actual Time 8:10 AM CDT 6:33 PM CDT
Civil Twilight 7:41 AM CDT 7:01 PM CDT
Nautical Twilight 7:09 AM CDT 7:34 PM CDT
Astronomical Twilight 6:36 AM CDT 8:06 PM CDT
Moon 6:03 AM CDT (11/1) 5:28 PM CDT (11/1)
Length of Visible Light 11h 20m
Length of Day
10h 22m
Waning Crescent, 4% of the Moon is Illuminated
Nov 1
Waning Crescent
Nov 3
New
Nov 9
First Quarter
Nov 17
Full
Nov 25
Last Quarter

Hourly Weather History & Observations

Time (CDT) Temp. Windchill Dew Point Humidity Pressure Visibility Wind Dir Wind Speed Gust Speed Precip Events Conditions
12:53 AM 46.0 °F 39.9 °F 33.1 °F 61% 29.70 in 10.0 mi WNW 13.8 mph - N/A   Overcast
1:53 AM 44.1 °F 36.8 °F 32.0 °F 63% 29.71 in 10.0 mi WNW 16.1 mph - N/A   Clear
2:53 AM 45.0 °F 37.9 °F 33.1 °F 63% 29.73 in 10.0 mi WNW 16.1 mph - N/A   Mostly Cloudy
3:53 AM 43.0 °F 36.8 °F 33.1 °F 68% 29.75 in 10.0 mi West 11.5 mph - N/A   Mostly Cloudy
4:53 AM 42.1 °F 35.7 °F 33.1 °F 70% 29.77 in 10.0 mi WNW 11.5 mph - N/A   Scattered Clouds
5:53 AM 43.0 °F 35.7 °F 35.1 °F 74% 29.78 in 10.0 mi NW 15.0 mph - N/A   Overcast
6:53 AM 44.1 °F 35.9 °F 37.0 °F 76% 29.83 in 10.0 mi NW 19.6 mph 28.8 mph N/A   Overcast
7:31 AM 42.8 °F 35.1 °F 37.4 °F 81% 29.83 in 10.0 mi NW 16.1 mph 24.2 mph N/A   Mostly Cloudy
7:53 AM 42.1 °F 34.5 °F 37.0 °F 82% 29.85 in 10.0 mi NW 15.0 mph 21.9 mph N/A   Mostly Cloudy
8:53 AM 43.0 °F 34.8 °F 36.0 °F 76% 29.89 in 10.0 mi NW 18.4 mph - N/A   Scattered Clouds
9:53 AM 45.0 °F 36.9 °F 37.0 °F 74% 29.93 in 10.0 mi NW 20.7 mph 27.6 mph N/A   Partly Cloudy
10:53 AM 50.0 °F - 36.0 °F 59% 29.94 in 10.0 mi NW 21.9 mph 25.3 mph N/A   Clear
11:53 AM 52.0 °F - 35.1 °F 53% 29.93 in 10.0 mi NW 28.8 mph 35.7 mph N/A   Clear
12:53 PM 52.0 °F - 33.1 °F 49% 29.94 in 10.0 mi NW 23.0 mph 32.2 mph N/A   Clear
1:53 PM 54.0 °F - 28.9 °F 38% 29.92 in 10.0 mi NW 28.8 mph 39.1 mph N/A   Scattered Clouds
2:53 PM 55.9 °F - 28.9 °F 36% 29.91 in 10.0 mi WNW 25.3 mph 35.7 mph 0.00 in   Mostly Cloudy
3:53 PM 52.0 °F - 32.0 °F 47% 29.95 in 10.0 mi NW 21.9 mph 32.2 mph 0.00 in   Overcast
4:53 PM 48.9 °F - 28.9 °F 46% 29.98 in 10.0 mi NNW 19.6 mph 31.1 mph 0.00 in   Overcast
5:53 PM 48.0 °F - 28.9 °F 48% 30.01 in 10.0 mi NNW 21.9 mph 29.9 mph N/A   Overcast
6:53 PM 45.0 °F 37.1 °F 30.0 °F 56% 30.04 in 10.0 mi NNW 19.6 mph - N/A   Scattered Clouds
7:53 PM 42.1 °F 35.2 °F 30.9 °F 65% 30.09 in 10.0 mi NNW 12.7 mph - N/A   Clear
8:53 PM 39.9 °F 32.5 °F 30.0 °F 68% 30.10 in 10.0 mi NNW 12.7 mph - N/A   Clear
9:53 PM 37.0 °F 30.4 °F 30.0 °F 76% 30.12 in 10.0 mi NW 9.2 mph - N/A   Clear
10:53 PM 39.0 °F 31.0 °F 28.9 °F 67% 30.12 in 10.0 mi NW 13.8 mph - N/A   Clear
11:53 PM 37.9 °F 30.5 °F 27.0 °F 65% 30.12 in 10.0 mi NW 11.5 mph - N/A   Clear